x

South Brooks (46132) Wave Buoy

4:00 - Sun 26th Apr 2015 All times are PDT. -7 hours from GMT.

  • Sig Wave height 6.6ft
  • Peak Period 6s
  • Wind
    27mph, 36mph gusts
  • Sea Temp 51°f
  • Ar Temp 51°f
  • Sea Pressure 1013.6mb
  • South Brooks
  • South Brooks

More Historic Weather Station data

Upgrade to MSW Pro to gain access to the past 30 days of data for over 8000 Wavebouys and Weather Stations around the globe.

Join Pro

Comparision Forecast

View Surf forecast
   
Dom 04/26 4:00 6.5ft 6s 27 36 mph 1013.6mb 51f 51f
3:00 6ft 5s 27 34 mph 1013.9mb 51f 51f
2:00 5ft 5s 27 34 mph 1014mb 51f 51f
1:00 4.5ft 4s 25 31 mph 1014.4mb 51f 51f
12:00 4ft 15s 20 27 mph 1014.8mb 51f 51f
Sáb 04/25 11:00 4ft 8s 20 25 mph 1014.9mb 52f 51f
10:00 4ft 9s 18 20 mph 1015.5mb 52f 50f
9:00 4.5ft 9s 16 18 mph 1015.6mb 52f 50f
8:00 4.5ft 15s 13 16 mph 1015.6mb 52f 50f
7:00 4.5ft 9s 11 13 mph 1015.7mb 52f 50f
6:00 4.5ft 8s 11 13 mph 1016.1mb 52f 50f
5:00 4.5ft 10s 11 13 mph 1016mb 53f 51f
4:00 4.5ft 8s 7 9 mph 1016.1mb 53f 51f
3:00 4.5ft 10s 4 7 mph 1016.1mb 53f 51f
2:00 5ft 9s 4 7 mph 1016.2mb 53f 50f
1:00 4.5ft 10s 7 9 mph 1016.1mb 53f 50f
12:00 4.5ft 9s 2 4 mph 1015.8mb 53f 50f
11:00 4.5ft 10s  -  2 mph 1015.6mb 52f 50f
10:00 5ft 9s 2 4 mph 1015.2mb 51f 49f
9:00 6ft 10s 4 7 mph 1014.7mb 51f 49f
8:00 6.5ft 10s 7 9 mph 1014.5mb 51f 49f
7:00 6ft 10s 9 11 mph 1014mb 51f 49f
6:00 6ft 10s 4 7 mph 1013.5mb 51f 48f
5:00 6ft 10s 4 9 mph 1013.4mb 51f 48f
4:00 6.5ft 10s 7 9 mph 1013.3mb 51f 48f
3:00 6ft 10s 9 11 mph 1013.1mb 51f 48f
2:00 6ft 11s 11 13 mph 1012.9mb 51f 49f
1:00 6ft 11s 11 16 mph 1012.6mb 51f 49f
12:00 6ft 11s 13 16 mph 1012.3mb 51f 49f
Sex 04/24 11:00 6ft 12s 13 16 mph 1012.1mb 51f 49f
10:00 7ft 11s 13 18 mph 1011.9mb 51f 49f
9:00 7ft 10s 13 16 mph 1011.5mb 51f 49f
8:00 8ft 11s 13 18 mph 1011mb 51f 49f
7:00 8.5ft 11s 16 20 mph 1010.7mb 51f 49f
6:00 8ft 12s 16 18 mph 1010.2mb 51f 49f
5:00 9ft 13s 18 20 mph 1010mb 51f 49f
4:00 10ft 12s 16 18 mph 1009.6mb 51f 49f
3:00 9ft 11s 13 18 mph 1009.3mb 51f 48f
2:00 9ft 11s 13 18 mph 1009mb 51f 48f
1:00 9.5ft 11s 13 18 mph 1008.8mb 51f 47f
12:00 9.5ft 12s 13 18 mph 1008.5mb 51f 47f
11:00 12ft 13s 16 20 mph 1007.9mb 51f 47f
10:00 10.5ft 14s 16 18 mph 1007.6mb 51f 47f
9:00 10.5ft 13s 16 18 mph 1007.1mb 51f 47f
8:00 12ft 14s 16 18 mph 1006.8mb 51f 46f
7:00 12ft 14s 16 18 mph 1006.5mb 51f 47f
6:00 13ft 14s 13 16 mph 1006mb 51f 47f
5:00 12ft 15s 11 16 mph 1005.8mb 51f 46f
4:00 13ft 15s 9 11 mph 1005.6mb 51f 46f
3:00 13ft 15s 2 7 mph 1005.5mb 51f 46f
2:00 13.5ft 14s 7 9 mph 1005.3mb 51f 45f
1:00 14ft 16s 11 18 mph 1005.1mb 51f 45f
12:00 13ft 16s 13 18 mph 1005mb 51f 45f
Qui 04/23 11:00 14ft 14s 16 25 mph 1004.7mb 51f 45f
10:00 14.5ft 14s 7 13 mph 1004.5mb 51f 45f
9:00 12ft 14s 11 16 mph 1004.3mb 51f 45f
8:00 11ft 11s 2 7 mph 1004.2mb 51f 44f
7:00 11ft 10s 18 22 mph 1004mb 51f 45f
6:00 10ft 11s 13 16 mph 1004mb 51f 47f
5:00 10ft 11s 13 18 mph 1004.3mb 51f 46f
4:00 10ft 10s 16 18 mph 1005mb 51f 45f
3:00 9ft 10s 16 20 mph 1005.7mb 51f 46f
2:00 9.5ft 10s 16 20 mph 1006.1mb 51f 47f
1:00 9.5ft 11s 18 25 mph 1006.3mb 51f 47f
12:00 8ft 10s 4 7 mph 1006.7mb 51f 48f
11:00 8ft 9s 7 11 mph 1007.2mb 51f 46f
10:00 8.5ft 10s 11 13 mph 1007mb 51f 48f
9:00 8ft 9s 9 13 mph 1007.3mb 51f 48f
8:00 7.5ft 10s 16 22 mph 1007.5mb 51f 48f
7:00 8ft 7s 13 16 mph 1007.5mb 51f 48f
6:00 7.5ft 8s 18 20 mph 1007.3mb 51f 47f
5:00 8ft 7s 11 16 mph 1007.6mb 51f 48f
4:00 8ft 7s 9 13 mph 1008.1mb 51f 48f
3:00 8.5ft 7s 13 18 mph 1008.4mb 51f 49f
2:00 8ft 6s 27 40 mph 1008.4mb 51f 47f
1:00 7.5ft 5s 34 40 mph 1008.7mb 51f 47f
12:00 7ft 5s 31 38 mph 1010.5mb 51f 47f
Qua 04/22 11:00 5.5ft 10s 29 36 mph 1011.8mb 51f 47f
10:00 6ft 11s 27 34 mph 1013.5mb 51f 46f
9:00 5.5ft 10s 22 27 mph 1014.8mb 51f 47f
8:00 6.5ft 11s 20 27 mph 1016.1mb 51f 47f
7:00 7ft 11s 18 22 mph 1017.2mb 51f 47f
6:00 7.5ft 11s 18 22 mph 1018.4mb 51f 47f
5:00 7ft 11s 13 16 mph 1019.4mb 51f 48f
4:00 7.5ft 11s 9 13 mph 1020.3mb 51f 48f
3:00 7.5ft 11s 7 9 mph 1021.2mb 52f 48f
2:00 8ft 11s 7 9 mph 1022mb 51f 47f
1:00 8ft 12s 9 13 mph 1022.3mb 51f 47f